SCP
0 0 0 0 0 0 0 0 0 0 0 0 0 0 0 0 0 0 0 0 0 0 0 0 0 0 0 0 0 0 0 0 0 0 0 0 0 0 0 0 0 0 0 0
0 0 0 0 0 0 0 0 0 0 0 0 0 0 0 0 0 0 0 0 0 0 0 0 0 0 0 0 0 0 0 0 0 0 0 0 0 0 0 0 0 0 0 0
0 0 0 0 0 0 0 0 0 0 0 0 0 0 0 0 0 0 0 0 0 0 0 0 0 0 0 0 0 0 0 0 0 0 0 0 0 0 0 0 0 0 0 0
0 0 0 0 0 0 0 0 0 0 0 0 0 0 0 0 0 0 0 0 0 0 0 0 0 0 0 0 0 0 0 0 0 0 0 0 0 0 0 0 0 0 0 0
0 0 0 0 0 0 0 0 0 0 0 0 0 0 0 0 0 0 0 0 0 0 0 0 0 0 0 0 0 0 0 0 0 0 0 0 0 0 0 0 0 0 0 0
0 0 0 0 0 0 0 0 0 0 0 0 0 0 0 0 0 0 0 0 0 0 0 0 0 0 0 0 0 0 0 0 0 0 0 0 0 0 0 0 0 0 0 0
0 0 0 0 0 0 0 0 0 0 0 0 0 0 0 0 0 0 0 0 0 0 0 0 0 0 0 0 0 0 0 0 0 0 0 0 0 0 0 0 0 0 0 0
0 0 0 0 0 0 0 0 0 0 0 0 0 0 0 0 0 0 0 0 0 0 0 0 0 0 0 0 0 0 0 0 0 0 0 0 0 0 0 0 0 0 0 0
0 0 0 0 0 0 0 0 0 0 0 0 0 0 0 0 0 0 0 0 0 0 0 0 0 0 0 0 0 0 0 0 0 0 0 0 0 0 0 0 0 0 0 0
0 0 0 0 0 0 0 0 0 0 0 0 0 0 0 0 0 0 0 0 0 0 0 0 0 0 0 0 0 0 0 0 0 0 0 0 0 0 0 0 0 0 0 0
0 0 0 0 0 0 0 0 0 0 0 0 0 0 0 0 0 0 0 0 0 0 0 0 0 0 0 0 0 0 0 0 0 0 0 0 0 0 0 0 0 0 0 0
0 0 0 0 0 0 0 0 0 0 0 0 0 0 0 0 0 0 0 0 0 0 0 0 0 0 0 0 0 0 0 0 0 0 0 0 0 0 0 0 0 0 0 0
0 0 0 0 0 0 0 0 0 0 0 0 0 0 0 0 0 0 0 0 0 0 0 0 0 0 0 0 0 0 0 0 0 0 0 0 0 0 0 0 0 0 0 0
0 0 0 0 0 0 0 0 0 0 0 0 0 0 0 0 0 0 0 0 0 0 0 0 0 0 0 0 0 0 0 0 0 0 0 0 0 0 0 0 0 0 0 0
0 0 0 0 0 0 0 0 0 0 0 0 0 0 0 0 0 0 0 0 0 0 0 0 0 0 0 0 0 0 0 0 0 0 0 0 0 0 0 0 0 0 0 0
0 0 0 0 0 0 0 0 0 0 0 0 0 0 0 0 0 0 0 0 0 0 0 0 0 0 0 0 0 0 0 0 0 0 0 0 0 0 0 0 0 0 0 0
0 0 0 0 0 0 0 0 0 0 0 0 0 0 0 0 0 0 0 0 0 0 0 0 0 0 0 0 0 0 0 0 0 0 0 0 0 0 0 0 0 0 0 0
0 0 0 0 0 0 0 0 0 0 0 0 0 0 0 0 0 0 0 0 0 0 0 0 0 0 0 0 0 0 0 0 0 0 0 0 0 0 0 0 0 0 0 0
0 0 0 0 0 0 0 0 0 0 0 0 0 0 0 0 0 0 0 0 0 0 0 0 0 0 0 0 0 0 0 0 0 0 0 0 0 0 0 0 0 0 0 0
0 0 0 0 0 0 0 0 0 0 0 0 0 0 0 0 0 0 0 0 0 0 0 0 0 0 0 0 0 0 0 0 0 0 0 0 0 0 0 0 0 0 0 0
0 0 0 0 0 0 0 0 0 0 0 0 0 0 0 0 0 0 0 0 0 0 0 0 0 0 0 0 0 0 0 0 0 0 0 0 0 0 0 0 0 0 0 0
0 0 0 0 0 0 0 0 0 0 0 0 0 0 0 0 0 0 0 0 0 0 0 0 0 0 0 0 0 0 0 0 0 0 0 0 0 0 0 0 0 0 0 0
0 0 0 0 0 0 0 0 0 0 0 0 0 0 0 0 0 0 0 0 0 0 0 0 0 0 0 0 0 0 0 0 0 0 0 0 0 0 0 0 0 0 0 0
0 0 0 0 0 0 0 0 0 0 0 0 0 0 0 0 0 0 0 0 0 0 0 0 0 0 0 0 0 0 0 0 0 0 0 0 0 0 0 0 0 0 0 0
0 0 0 0 0 0 0 0 0 0 0 0 0 0 0 0 0 0 0 0 0 0 0 0 0 0 0 0 0 0 0 0 0 0 0 0 0 0 0 0 0 0 0 0
0 0 0 0 0 0 0 0 0 0 0 0 0 0 0 0 0 0 0 0 0 0 0 0 0 0 0 0 0 0 0 0 0 0 0 0 0 0 0 0 0 0 0 0
Wind_Speed
2 3 4 7 8 6 4 4 5 6 4 4 7 9 9 6 6 8 8 7 7 5 3 3 4 5 5 5 6 5 5 4 4 3 2 2 1 1 1 1 1 1 2 2
2 5 10 6 4 4 4 4 4 5 2 3 6 9 8 8 10 13 14 12 10 7 4 4 4 4 4 4 4 4 5 4 4 3 2 2 1 0 0 1 2 2 2 3
8 7 4 5 5 4 4 4 4 4 4 3 3 8 5 4 5 7 9 10 10 11 9 6 5 4 4 4 3 4 4 4 4 4 3 3 3 2 2 2 2 3 3 3
7 7 4 5 5 6 5 5 4 2 1 4 1 6 8 5 4 7 9 9 10 9 8 7 6 5 4 3 3 4 4 4 4 4 3 3 2 0 1 1 2 4 3 4
6 4 6 7 7 7 6 3 1 1 1 3 2 4 10 2 6 10 10 11 11 10 11 10 8 7 5 4 4 4 4 3 3 3 4 3 2 1 1 1 3 3 3 4
6 4 6 7 3 4 4 4 5 5 4 4 6 6 10 6 10 9 11 12 11 10 9 8 7 6 5 4 3 3 4 3 2 3 3 3 2 1 1 2 3 3 3 3
4 4 3 4 4 1 4 5 3 3 2 7 4 5 12 8 7 10 15 15 12 11 11 10 9 8 6 6 5 4 4 2 2 2 2 2 2 2 2 2 3 3 3 3
5 6 6 6 8 7 5 8 7 5 5 6 3 8 10 5 4 5 9 11 11 11 10 11 11 10 8 7 6 5 4 3 2 2 1 1 1 1 2 3 3 3 3 4
8 6 1 3 3 10 6 5 6 5 2 4 7 8 9 2 2 3 7 10 12 12 11 11 10 9 8 8 7 6 5 3 3 2 2 1 1 1 2 3 3 3 4 4
8 4 1 0 3 1 5 6 5 4 3 5 7 6 6 4 4 4 7 11 12 11 10 10 10 9 8 7 6 5 5 4 3 2 2 1 2 2 3 3 4 5 5 5
6 5 1 1 7 8 5 4 4 4 4 5 4 9 6 6 7 8 10 11 12 13 13 11 9 8 7 6 5 5 4 3 3 2 2 2 2 3 3 4 5 5 5 6
7 6 4 7 5 5 7 8 8 6 6 5 4 10 5 4 6 7 8 8 9 10 10 9 8 7 6 6 5 5 4 3 3 3 2 2 3 3 4 5 6 6 7 7
9 7 3 3 2 2 4 6 7 5 4 5 5 10 4 1 2 5 7 8 8 8 8 7 7 7 7 6 5 4 4 4 3 2 2 3 4 4 5 6 7 7 7 7
8 6 8 10 7 7 6 6 7 7 5 6 10 11 6 4 4 5 6 7 7 8 8 8 7 7 6 6 5 4 4 3 3 2 3 4 5 6 6 7 7 7 7 7
6 5 6 6 5 5 7 8 9 11 11 11 10 11 13 9 9 8 7 6 7 7 8 9 8 6 5 5 4 4 3 3 3 3 3 5 6 6 6 7 7 7 7 8
4 5 3 3 4 5 6 9 10 11 10 11 10 14 9 5 4 4 6 8 9 8 8 8 7 7 6 6 5 4 3 3 2 3 5 5 6 6 7 7 7 7 8 8
5 6 5 3 2 1 8 11 11 8 9 9 13 14 5 3 6 7 7 8 9 8 8 8 8 7 6 6 5 4 4 2 2 4 5 5 6 7 7 7 7 8 8 8
8 7 5 3 3 8 11 4 6 7 8 9 8 6 4 5 3 1 4 7 7 7 7 7 6 5 4 4 3 3 2 2 3 4 5 6 6 7 7 7 8 8 8 8
4 7 5 4 4 8 10 5 5 6 8 6 8 6 2 3 3 3 1 4 5 6 6 5 5 4 4 3 3 2 2 2 3 5 6 7 7 7 7 8 9 8 8 8
4 4 6 5 5 8 9 3 2 3 7 5 6 7 6 6 3 5 2 3 4 5 5 5 4 3 3 2 2 2 3 3 5 6 7 7 7 7 8 9 9 8 8 9
4 3 5 5 6 10 8 3 5 4 8 2 5 6 8 7 6 3 5 4 4 4 4 4 4 3 2 2 1 2 3 5 6 6 6 7 7 8 9 8 8 8 9 9
10 8 7 6 5 12 5 7 9 8 2 2 3 5 6 4 4 5 5 5 5 4 3 3 3 2 2 2 1 3 5 6 6 6 7 8 8 8 8 8 9 8 9 10
9 10 9 11 10 5 6 8 5 4 5 4 4 4 6 6 5 5 4 4 3 3 3 2 2 2 2 2 2 4 6 6 6 6 8 8 9 8 8 8 9 9 8 8
5 4 5 5 8 5 5 4 3 4 5 4 4 5 7 6 6 5 4 3 3 2 2 2 1 2 3 4 4 5 6 6 6 7 8 8 8 8 8 7 7 8 8 8
7 7 5 6 5 2 5 6 6 4 4 5 4 4 6 6 5 5 4 4 3 2 1 2 2 3 5 5 6 6 6 6 7 8 8 8 8 8 8 8 7 9 8 10
6 9 9 9 9 8 7 5 6 7 6 6 6 4 4 5 5 4 3 3 2 2 2 2 3 4 6 6 7 7 6 6 7 8 8 7 7 7 7 9 10 14 17 22
Wind_Direction
124 99 210 219 205 204 215 234 262 260 252 205 238 251 251 225 186 178 181 176 169 163 150 108 91 89 87 85 91 94 101 104 107 101 105 100 82 29 11 339 315 304 300 300
65 239 230 217 209 203 216 248 270 285 288 223 260 265 253 219 199 188 184 182 174 163 150 130 109 94 96 104 101 103 109 111 110 113 118 122 120 86 308 320 330 319 312 305
193 230 219 189 203 210 230 225 239 256 314 323 311 300 275 247 200 190 188 181 174 169 165 158 141 127 118 121 129 124 119 113 108 108 96 71 53 27 6 345 326 317 314 306
227 243 208 201 213 192 245 234 214 214 33 291 316 291 279 239 206 195 193 186 182 174 164 161 156 151 150 153 138 126 122 115 112 110 109 112 119 169 263 280 298 312 318 311
235 208 188 205 217 189 218 211 190 185 176 294 262 234 280 225 221 217 204 196 189 180 171 167 166 162 157 151 139 131 120 111 109 107 117 116 121 203 281 312 321 320 319 317
230 221 196 197 185 175 151 68 42 46 73 281 229 193 272 225 215 208 200 197 190 180 172 165 160 152 148 146 139 135 127 121 118 114 117 129 148 221 307 315 316 314 311 311
262 248 216 150 127 99 112 94 5 331 347 254 221 202 251 247 228 202 192 191 187 177 170 165 163 165 163 162 161 155 147 151 147 132 137 162 187 212 246 273 285 298 304 303
205 256 217 186 171 174 179 153 174 215 235 280 275 229 254 277 274 211 181 174 173 177 177 175 175 172 171 171 170 167 166 170 172 163 182 197 208 218 248 262 268 276 278 282
188 238 255 194 174 148 157 198 180 152 240 267 275 282 300 303 6 123 152 162 179 184 183 181 177 174 174 175 177 175 171 173 183 185 189 217 238 245 264 277 279 278 279 286
169 208 234 184 106 152 162 159 123 152 202 256 283 275 256 261 238 193 181 185 188 186 186 184 181 179 177 177 173 171 170 177 185 190 202 216 248 263 271 282 288 287 287 288
165 171 214 169 196 196 167 180 170 167 176 181 259 270 232 227 215 204 205 197 190 189 189 186 183 179 172 166 165 169 174 173 187 203 216 237 266 276 282 281 281 282 283 285
162 140 201 235 237 196 184 189 161 173 224 195 205 267 273 250 218 202 206 202 196 192 187 181 174 166 166 168 170 174 178 185 200 206 217 244 265 279 284 282 282 281 281 282
154 141 147 321 296 204 209 205 186 164 153 180 196 261 296 313 210 204 202 201 192 183 176 169 166 170 174 175 176 180 185 194 202 205 225 258 274 278 278 279 280 281 281 283
134 144 176 196 208 189 206 213 187 168 194 221 224 248 270 252 237 226 212 200 188 181 175 171 173 176 176 176 178 182 193 197 204 213 238 261 268 270 272 275 278 279 279 281
129 178 208 223 225 191 210 217 200 201 209 216 237 240 250 232 223 221 208 188 176 178 177 178 177 175 173 175 181 185 198 210 211 227 252 262 268 272 275 277 278 279 279 280
126 170 190 244 232 217 241 240 223 223 224 232 251 261 252 235 207 207 200 186 186 187 184 178 171 170 176 181 186 194 210 222 221 240 258 268 275 278 278 279 280 281 281 280
156 150 155 236 263 10 262 234 219 217 215 203 230 248 243 210 207 208 201 192 192 188 179 175 175 178 182 187 188 198 214 227 239 255 268 274 277 280 280 283 285 283 282 280
149 146 147 170 143 230 242 232 206 216 239 221 230 245 218 204 198 215 192 185 187 178 172 171 168 171 178 179 185 193 212 233 251 266 273 276 279 280 282 283 281 281 280 280
144 141 137 152 207 267 286 254 193 201 260 227 218 224 185 128 75 344 271 176 178 173 164 163 163 161 160 171 179 182 241 257 266 271 275 278 278 281 283 283 282 282 284 285
75 112 132 151 184 235 248 224 158 122 273 242 189 186 168 137 162 246 193 140 135 133 136 139 138 134 149 179 170 190 254 265 268 270 273 276 276 276 280 280 281 281 283 284
137 139 163 175 212 255 250 176 129 184 245 216 171 174 169 184 199 175 136 127 131 128 130 130 131 145 183 193 180 239 263 263 265 271 276 277 276 276 277 278 278 283 287 289
170 170 185 163 197 249 209 151 186 214 192 153 159 167 171 171 129 131 136 135 132 126 129 134 140 181 227 219 213 255 265 266 271 276 278 280 280 282 289 284 285 285 287 290
194 188 182 189 210 232 181 197 207 166 171 178 167 163 151 151 159 155 152 149 146 146 150 151 161 214 267 260 239 257 269 275 279 280 280 282 284 281 280 281 287 290 286 287
233 173 164 224 251 237 219 220 204 183 180 171 159 152 153 159 162 159 157 160 161 162 168 166 177 244 274 275 269 260 272 277 278 280 283 284 285 286 282 280 281 284 286 286
202 170 187 232 254 262 247 219 200 175 152 138 135 144 156 152 158 164 168 177 182 187 197 197 222 251 266 275 276 275 275 277 279 281 283 285 282 283 287 282 276 282 272 277
190 177 182 218 210 194 218 202 175 165 170 161 145 131 134 149 157 157 170 183 187 201 218 245 257 263 270 274 276 278 276 274 278 286 285 283 284 285 286 289 292 287 288 294